TimeCDT,TemperatureF,Dew PointF,Humidity,Sea Level PressureIn,VisibilityMPH,Wind Direction,Wind SpeedMPH,Gust SpeedMPH,PrecipitationIn,Events,Conditions,WindDirDegrees,DateUTC
12:54 AM,62.1,37.0,39,29.53,10.0,WSW,12.7,-,N/A,,Overcast,250,2013-09-30 05:54:00
1:54 AM,60.1,35.1,39,29.53,10.0,WSW,9.2,-,N/A,,Scattered Clouds,250,2013-09-30 06:54:00
2:54 AM,57.0,37.0,47,29.54,10.0,WSW,8.1,-,N/A,,Mostly Cloudy,250,2013-09-30 07:54:00
3:54 AM,55.9,36.0,47,29.53,10.0,SW,6.9,-,N/A,,Scattered Clouds,220,2013-09-30 08:54:00
4:54 AM,53.1,37.0,55,29.54,10.0,SSW,9.2,-,N/A,,Partly Cloudy,210,2013-09-30 09:54:00
5:54 AM,50.0,37.9,63,29.54,10.0,SW,10.4,-,N/A,,Clear,220,2013-09-30 10:54:00
6:54 AM,50.0,37.9,63,29.54,10.0,SW,10.4,-,N/A,,Clear,230,2013-09-30 11:54:00
7:54 AM,46.9,37.9,71,29.54,10.0,WSW,6.9,-,N/A,,Clear,240,2013-09-30 12:54:00
8:54 AM,51.1,39.0,63,29.52,10.0,SSW,6.9,-,N/A,,Clear,210,2013-09-30 13:54:00
9:54 AM,55.9,41.0,57,29.52,10.0,SSW,8.1,-,N/A,,Clear,210,2013-09-30 14:54:00
10:54 AM,60.1,41.0,49,29.52,10.0,SSW,9.2,-,N/A,,Clear,210,2013-09-30 15:54:00
11:54 AM,63.0,36.0,37,29.51,10.0,SSW,9.2,-,N/A,,Clear,200,2013-09-30 16:54:00
12:54 PM,66.0,37.0,34,29.49,10.0,South,12.7,-,N/A,,Mostly Cloudy,190,2013-09-30 17:54:00
1:54 PM,68.0,39.9,36,29.46,10.0,South,13.8,18.4,N/A,,Clear,170,2013-09-30 18:54:00
2:54 PM,70.0,39.9,33,29.43,10.0,South,13.8,20.7,N/A,,Clear,190,2013-09-30 19:54:00
3:54 PM,72.0,41.0,33,29.42,10.0,South,13.8,-,N/A,,Clear,180,2013-09-30 20:54:00
4:54 PM,73.0,42.1,33,29.42,10.0,South,12.7,18.4,N/A,,Clear,180,2013-09-30 21:54:00
5:54 PM,72.0,44.1,37,29.42,10.0,SSW,6.9,16.1,N/A,,Partly Cloudy,210,2013-09-30 22:54:00
6:54 PM,69.1,46.0,44,29.43,10.0,West,9.2,-,N/A,,Overcast,260,2013-09-30 23:54:00
7:54 PM,55.9,50.0,80,29.55,7.0,West,27.6,35.7,0.03,Rain,Rain,280,2013-10-01 00:54:00
8:54 PM,54.0,48.0,80,29.52,10.0,Calm,Calm,-,0.08,Rain,Light Rain,0,2013-10-01 01:54:00
9:54 PM,53.1,50.0,89,29.53,10.0,SSW,5.8,-,0.00,,Partly Cloudy,210,2013-10-01 02:54:00
10:54 PM,53.1,46.0,77,29.55,10.0,SW,13.8,-,N/A,,Clear,220,2013-10-01 03:54:00
11:54 PM,52.0,43.0,71,29.56,10.0,SW,13.8,25.3,N/A,,Clear,230,2013-10-01 04:54:00